Location: Banios
(43.0451°N, 0.2335°E)
Time: 04:33:20
(UTC+00:00)

N. Korean satellite - Pass Details

Date: 07 December 2021
Orbit: 447 x 491 km, 97.3° (Epoch: 25 January)

Event Time Altitude Azimuth Distance (km) Brightness Sun altitude
Rises 04:57:43 0° 17° (NNE) 2,460 10.3 -24.6°
Reaches altitude 10° 04:59:48 10° 24° (NNE) 1,582 9.3 -24.2°
Maximum altitude 05:03:05 47° 99° (E) 600 7.3 -23.7°
Drops below altitude 10° 05:06:21 10° 175° (S) 1,571 9.3 -23.1°
Sets 05:08:25 0° 181° (S) 2,441 10.2 -22.7°
